Terug naar catalogus

CZ-6A DEB

ActiefSSO
NORAD 56672·DEBRIS·🇨🇳 China

Gelanceerd Nov 11, 2022 vanaf Taiyuan Satellite Launch Center

Loading…

Volgende Passages (komende 24 uur)

TLE

VersSource: Space-Track

Epoch: Sep 14, 2026, 07:23 UTC

1 56672U 22151AGY 26257.30785185  .00000326  00000-0  28769-3 0  9992
2 56672  98.9078 203.6950 0154128 235.2544 123.4020 13.86831993176580

Volg CZ-6A DEB in realtime met AllMySat

Download on the App Store